< < Back
Terminal Aerodrome Forecast


Current Version              Previous Versions:   1  2  3  4  5  6  7  8  9  

Terminal Aerodrome Forecast

550
FTUS42 KGSP 280900 AAB
TAFAVL
TAF AMD
KAVL 280913Z 2809/2906 00000KT P6SM BKN040 OVC080
      TEMPO 2809/2812 4SM BR BKN005
     FM281400 32013G20KT P6SM SCT045
     FM281600 32014G25KT P6SM SCT250
     FM290000 32009KT P6SM SCT250
     FM290300 32007KT P6SM SCT040=



Latest METAR

410
SAUS70 KWBC 281800 RRI
MTRAVL
METAR KAVL 281754Z 35014G25KT 10SM FEW055 26/14 A2994 RMK AO2 PK WND
35028/1657 SLP112 T02610139 10272 20194 51001


USA.gov is the U.S. government's official web portal to all federal, state and local government web resources and services.